Location: *
(50.5492°N, 7.7469°E)
Time: 18:32:44
(UTC+00:00)

Cosmos 1766 Rocket - Pass Details

Date: 21 October 2019
Orbit: 605 x 633 km, 82.5° (Epoch: 22 November)

Event Time Altitude Azimuth Distance (km) Brightness Sun altitude
Rises 18:42:33 0° 351° (N) 2,876 7.2 -22.4°
Reaches altitude 10° 18:44:47 10° 353° (N) 1,967 6.3 -22.7°
Enters shadow 18:48:34 62° 26° (NNE) 685 3.6 -23.3°
